Vorticity
14 7 10 4 7 10 10 2 1 5 2 3 3 2 0 1 3 27 7 6 4 5 -0 3 5 7 11 10 7 7 7 9 9 8 7 7 6 4 1 4 3 3 3
10 6 6 5 7 9 12 13 6 2 2 2 4 2 2 10 23 -7 11 -5 6 4 6 6 7 9 9 8 7 8 8 8 7 4 2 1 1 3 1 3 4 6 8
4 12 3 8 3 7 10 11 6 4 3 3 3 4 17 14 7 5 5 5 6 5 5 7 9 10 9 9 9 7 5 3 4 4 2 2 1 1 4 6 6 6 7
5 14 10 6 7 5 9 8 5 5 6 3 5 13 10 6 4 3 4 4 5 5 7 9 11 8 8 7 6 3 3 3 3 4 6 6 7 7 4 2 6 8 9
6 10 9 8 6 6 11 11 8 8 3 4 5 6 6 5 4 5 6 7 7 7 10 11 9 8 7 5 3 3 4 4 5 4 3 6 8 10 12 9 5 5 6
10 5 6 5 5 7 9 9 6 4 3 2 3 5 5 6 7 8 6 7 9 10 9 8 8 6 4 3 4 4 5 5 5 6 6 6 6 5 6 7 7 8 5
12 6 9 4 5 9 9 6 4 1 2 3 6 7 7 7 6 6 9 10 9 9 9 8 5 4 4 4 3 3 4 4 5 6 6 7 9 10 11 11 8 8 6
13 7 13 6 6 10 9 6 5 3 4 6 7 8 6 6 7 9 11 8 7 8 7 4 4 3 4 4 6 3 5 5 6 8 11 11 11 10 9 8 8 9 9
9 6 10 6 9 10 8 7 7 8 7 8 6 4 8 8 9 10 8 8 7 7 4 3 3 5 5 3 4 4 5 8 10 11 11 11 8 6 3 3 2 -1 -2
11 8 10 7 6 10 11 10 9 7 7 7 5 6 8 10 9 7 7 8 7 3 4 5 4 3 4 4 5 6 9 12 14 11 7 5 2 1 0 1 4 5 1
9 6 6 5 3 5 7 6 7 6 5 5 7 9 11 8 6 7 9 5 4 6 4 4 2 3 2 5 6 11 15 13 7 4 3 1 -0 1 3 3 4 9 15
7 7 7 5 6 6 6 5 5 8 8 8 10 9 7 5 9 7 6 6 5 4 3 3 2 3 6 8 16 15 9 4 4 0 -1 0 2 5 4 8 15 17 21
8 9 9 8 8 9 9 8 9 10 9 8 7 6 6 7 9 7 7 4 4 3 3 2 3 6 14 17 11 8 6 2 -1 -1 4 3 3 3 12 18 22 25 24
9 9 9 7 6 5 5 7 8 8 8 8 7 6 7 9 8 6 4 5 2 2 4 5 6 18 13 10 8 4 -1 -1 1 3 3 2 6 14 23 27 25 22 21
5 4 5 5 5 6 9 10 9 8 8 8 6 7 7 6 5 7 4 2 2 4 5 7 19 11 10 5 2 -1 -2 3 3 4 2 5 20 29 28 23 22 19 15
5 5 8 10 11 11 11 9 7 8 8 6 6 7 4 3 15 1 2 3 2 5 12 17 11 10 1 2 2 3 4 3 6 5 2 22 30 27 22 20 15 9 7
6 6 8 9 9 8 7 7 8 6 5 6 4 5 12 9 4 1 5 1 6 17 12 11 7 -1 1 0 1 3 2 7 6 5 22 33 23 21 19 11 8 6 14
6 6 8 10 8 8 9 8 6 6 5 7 19 8 3 3 3 6 2 7 19 10 10 5 1 2 2 5 8 6 6 5 3 23 34 26 21 13 7 7 12 32 43
9 10 10 10 10 9 8 6 5 7 13 2 9 4 4 4 5 4 11 16 12 8 4 1 6 6 4 4 7 3 6 3 25 37 26 15 8 10 21 31 42 36 25
10 8 8 7 8 6 7 9 7 16 9 7 4 4 7 0 6 16 11 10 6 2 3 7 3 2 3 4 4 5 1 28 35 25 12 14 27 38 39 30 26 18 13
9 10 10 9 7 9 5 4 2 10 4 5 4 7 1 7 19 11 7 5 3 -0 3 3 4 2 2 4 3 7 34 33 18 11 26 31 33 32 22 19 15 16 34
10 8 9 4 5 5 5 9 8 7 4 6 5 3 12 17 10 7 4 5 1 4 -1 3 4 5 5 4 7 28 38 14 11 31 24 32 26 18 20 19 23 30 2
5 10 13 7 7 11 9 7 3 6 9 5 3 19 11 10 6 4 5 1 2 0 0 4 6 7 6 7 24 40 15 11 32 24 30 19 27 32 21 22 19 1 11
9 7 7 11 9 6 5 5 9 8 3 12 16 10 8 6 3 7 3 -3 1 3 5 4 5 6 8 22 39 17 18 34 27 30 19 30 12 15 28 5 2 19 17
8 8 8 9 9 10 11 10 4 6 14 13 10 7 6 4 6 2 1 3 3 4 3 6 8 11 26 36 15 24 32 29 28 19 25 15 28 25 1 4 22 12 16
9 10 11 11 11 9 3 4 10 14 12 9 7 6 5 4 1 3 3 3 5 8 7 9 11 25 32 15 24 28 30 24 18 25 19 28 13 3 12 24 8 10 13
Height
5766 5766 5769 5772 5773 5775 5777 5781 5783 5783 5785 5784 5783 5783 5782 5781 5779 5777 5775 5773 5772 5769 5767 5763 5760 5756 5752 5749 5746 5742 5738 5733 5731 5729 5727 5722 5718 5714 5710 5706 5701 5695 5690
5759 5760 5764 5766 5768 5770 5772 5774 5776 5778 5778 5778 5777 5777 5776 5774 5771 5770 5769 5767 5765 5762 5759 5755 5751 5747 5743 5739 5736 5732 5728 5723 5719 5716 5713 5712 5710 5703 5697 5691 5685 5678 5673
5752 5754 5758 5761 5763 5764 5766 5768 5770 5771 5772 5771 5771 5770 5768 5766 5764 5763 5762 5760 5757 5754 5750 5746 5742 5738 5734 5730 5725 5721 5717 5713 5707 5701 5697 5693 5691 5689 5686 5680 5672 5665 5658
5745 5748 5753 5755 5756 5758 5760 5762 5763 5765 5766 5766 5765 5763 5761 5759 5758 5756 5754 5751 5748 5745 5741 5737 5732 5728 5724 5719 5715 5710 5706 5701 5696 5691 5682 5674 5666 5661 5661 5661 5655 5647 5639
5739 5742 5746 5749 5751 5752 5754 5754 5756 5758 5759 5759 5758 5756 5754 5752 5751 5748 5746 5743 5739 5735 5731 5727 5723 5719 5714 5710 5705 5699 5694 5688 5682 5676 5670 5663 5655 5646 5636 5631 5626 5621 5616
5734 5737 5740 5743 5745 5746 5747 5748 5750 5751 5752 5751 5750 5748 5746 5745 5743 5740 5738 5734 5731 5726 5722 5718 5714 5709 5705 5700 5694 5688 5681 5675 5668 5660 5652 5643 5635 5629 5621 5615 5610 5602 5593
5728 5732 5734 5737 5739 5740 5741 5743 5744 5745 5745 5744 5742 5740 5738 5737 5734 5732 5728 5725 5722 5718 5714 5708 5704 5699 5694 5688 5682 5676 5668 5661 5653 5644 5636 5626 5616 5606 5597 5589 5585 5579 5575
5721 5725 5727 5731 5732 5734 5736 5736 5737 5737 5737 5736 5734 5732 5730 5728 5725 5722 5719 5715 5712 5708 5703 5698 5694 5688 5683 5676 5670 5662 5654 5646 5636 5627 5617 5608 5598 5588 5577 5567 5556 5556 5551
5715 5718 5721 5724 5726 5728 5729 5730 5730 5730 5729 5728 5726 5724 5722 5719 5716 5713 5710 5706 5702 5698 5693 5688 5682 5676 5670 5663 5656 5647 5638 5629 5618 5609 5599 5589 5579 5569 5558 5545 5532 5519 5517
5709 5713 5716 5718 5720 5722 5723 5723 5723 5723 5722 5720 5718 5716 5714 5711 5708 5704 5701 5697 5692 5688 5682 5676 5670 5663 5656 5648 5640 5631 5621 5611 5600 5591 5581 5571 5560 5550 5537 5523 5509 5492 5477
5703 5707 5710 5712 5714 5715 5717 5716 5717 5715 5714 5712 5710 5708 5705 5702 5699 5695 5691 5687 5682 5677 5671 5665 5658 5650 5642 5633 5624 5614 5604 5594 5584 5574 5563 5552 5540 5528 5514 5499 5482 5465 5443
5698 5702 5704 5707 5708 5709 5709 5710 5710 5708 5706 5704 5702 5700 5697 5694 5690 5686 5682 5677 5672 5666 5659 5652 5644 5635 5626 5616 5607 5598 5588 5578 5567 5556 5544 5532 5518 5503 5487 5470 5452 5433 5417
5694 5697 5698 5700 5701 5702 5702 5703 5702 5700 5698 5696 5694 5691 5688 5685 5681 5676 5671 5666 5660 5653 5646 5638 5629 5620 5610 5600 5590 5581 5572 5561 5548 5535 5522 5508 5493 5477 5458 5440 5422 5405 5390
5689 5691 5692 5693 5694 5695 5695 5695 5693 5691 5690 5688 5685 5683 5679 5675 5670 5665 5660 5654 5648 5640 5632 5622 5613 5603 5593 5584 5575 5565 5555 5542 5528 5513 5498 5482 5464 5446 5427 5410 5392 5377 5364
5684 5686 5687 5687 5688 5689 5688 5687 5685 5683 5681 5680 5677 5673 5669 5665 5660 5654 5649 5642 5635 5626 5617 5607 5597 5587 5578 5569 5559 5547 5535 5522 5507 5491 5472 5454 5434 5416 5398 5379 5368 5354 5343
5678 5679 5680 5681 5681 5681 5681 5679 5677 5675 5673 5670 5667 5663 5659 5654 5648 5643 5637 5629 5621 5611 5601 5591 5582 5573 5563 5552 5539 5527 5515 5500 5483 5466 5448 5427 5407 5390 5376 5361 5347 5333 5320
5671 5672 5673 5674 5674 5673 5672 5670 5668 5666 5663 5660 5656 5652 5648 5643 5637 5631 5624 5616 5606 5596 5587 5577 5568 5558 5546 5534 5521 5508 5494 5477 5459 5440 5419 5402 5383 5367 5355 5346 5332 5320 5308
5664 5665 5666 5667 5666 5665 5664 5662 5660 5657 5655 5651 5647 5642 5637 5632 5626 5619 5610 5601 5592 5583 5573 5564 5553 5542 5528 5515 5500 5486 5471 5453 5433 5412 5393 5376 5364 5349 5332 5321 5312 5300 5287
5658 5659 5660 5660 5659 5658 5656 5654 5651 5648 5645 5641 5637 5632 5626 5620 5613 5605 5596 5587 5579 5569 5560 5549 5537 5525 5511 5495 5479 5462 5446 5427 5409 5388 5370 5353 5339 5326 5313 5299 5290 5281 5273
5651 5652 5652 5651 5651 5649 5648 5645 5642 5639 5635 5631 5627 5621 5615 5608 5600 5591 5583 5574 5566 5557 5546 5535 5521 5507 5492 5474 5455 5435 5415 5402 5384 5372 5354 5336 5317 5304 5292 5282 5275 5270 5264
5644 5645 5644 5644 5643 5641 5639 5636 5633 5629 5625 5621 5616 5610 5603 5595 5587 5578 5571 5563 5554 5544 5533 5521 5506 5489 5471 5453 5434 5413 5391 5371 5360 5349 5335 5318 5303 5291 5282 5274 5267 5260 5255
5637 5637 5637 5636 5634 5632 5630 5626 5623 5620 5616 5610 5605 5598 5591 5582 5575 5567 5559 5550 5541 5530 5518 5505 5490 5472 5454 5433 5414 5394 5374 5355 5338 5327 5315 5303 5291 5282 5274 5267 5261 5255 5251
5631 5630 5629 5628 5625 5623 5620 5617 5614 5610 5605 5600 5593 5585 5578 5571 5563 5555 5547 5537 5526 5514 5501 5487 5472 5456 5436 5417 5396 5377 5361 5345 5328 5314 5302 5292 5282 5274 5268 5262 5257 5252 5247
5624 5623 5622 5620 5618 5615 5612 5609 5605 5600 5594 5587 5580 5574 5567 5559 5551 5542 5533 5522 5509 5496 5481 5467 5452 5435 5416 5395 5377 5362 5347 5331 5318 5306 5296 5286 5277 5269 5263 5258 5253 5248 5243
5618 5616 5614 5612 5609 5606 5603 5599 5594 5588 5582 5575 5570 5563 5556 5549 5541 5530 5519 5506 5490 5475 5460 5444 5427 5410 5396 5378 5359 5343 5329 5317 5307 5298 5289 5281 5274 5267 5262 5256 5251 5247 5244
5609 5607 5605 5603 5600 5597 5593 5588 5582 5577 5571 5565 5559 5553 5546 5538 5529 5518 5506 5488 5473 5456 5439 5421 5404 5390 5370 5357 5345 5332 5318 5307 5299 5291 5284 5277 5272 5268 5262 5257 5253 5249 5245